[keps] orb09113.2l.amsat
Ray Hoad
r.hoad at att.net
Thu Apr 23 19:34:54 PDT 2009
SB KEPS @ AMSAT $ORB09113.N
2Line Orbital Elements 09113.AMSAT
HR AMSAT ORBITAL ELEMENTS FOR AMATEUR SATELLITES IN NASA FORMAT
FROM WA5QGD FORT WORTH,TX April 23, 2009
Send Subscribe/unsubscribe to KEPS at
http://www.amsat.org/mailman/listinfo/keps
BID: ORB09113.N
DECODE 2-LINE ELSETS WITH THE FOLLOWING KEY:
1 AAAAAU 00 0 0 BBBBB.BBBBBBBB .CCCCCCCC 00000-0 00000-0 0 DDDZ
2 AAAAA EEE.EEEE FFF.FFFF GGGGGGG HHH.HHHH III.IIII JJ.JJJJJJJJKKKKKZ
KEY: A-CATALOGNUM B-EPOCHTIME C-DECAY D-ELSETNUM E-INCLINATION F-RAAN
G-ECCENTRICITY H-ARGPERIGEE I-MNANOM J-MNMOTION K-ORBITNUM Z-CHECKSUM
TO ALL RADIO AMATEURS BT
AO-07
1 07530U 74089B 09112.62332939 -.00000027 00000-0 10000-3 0 04598
2 07530 101.4312 139.3320 0011973 018.7195 341.4310 12.53575574575751
AO-10
1 14129U 83058B 09107.02459111 -.00000120 00000-0 10000-3 0 06457
2 14129 025.9414 161.4953 5990263 214.9097 084.8802 02.05868384194366
UO-11
1 14781U 84021B 09112.69711751 .00000395 00000-0 59778-4 0 09421
2 14781 098.1132 156.6575 0009595 150.2413 209.9323 14.79707821349624
RS-15
1 23439U 94085A 09112.72492664 -.00000039 00000-0 10000-3 0 02260
2 23439 064.8150 354.5051 0147121 062.3510 299.2258 11.27553307589860
FO-29
1 24278U 96046B 09112.68720272 -.00000022 00000-0 11162-4 0 00255
2 24278 098.5621 354.1656 0351245 134.1127 228.9486 13.52943037626241
SO-33
1 25509U 98061B 09113.67546275 .00000298 00000-0 44998-4 0 4375
2 25509 031.4353 000.7313 0354645 221.8998 135.4027 14.28253050548034
AO-40
1 26609U 00072B 09109.63079107 -.00000376 00000-0 10000-3 0 2178
2 26609 009.2142 022.9259 7963699 196.1185 100.9271 01.25585250 38893
RS-22
1 27939U 03042A 09113.70056999 .00000091 00000-0 26545-4 0 7723
2 27939 097.9533 350.5319 0012724 307.8288 052.1765 14.63309955297601
VO-52
1 28650U 05017B 09113.68240378 .00000398 00000-0 56989-4 0 2080
2 28650 097.7460 177.0546 0026619 205.3279 154.6645 14.81576474214575
PO-63
1 29712U 07001D 09113.74681124 .00000581 00000-0 82478-4 0 4268
2 29712 097.8329 171.4451 0015497 091.6966 268.6015 14.80516108123410
AO-16
1 20439U 90005D 09112.92792670 .00000006 00000-0 17624-4 0 05881
2 20439 098.2743 083.8590 0010678 340.9637 019.1141 14.31821767005248
LO-19
1 20442U 90005G 09113.83239799 .00000037 00000-0 28921-4 0 5082
2 20442 098.2361 092.1929 0011489 333.6187 026.4410 14.32058111 5535
AO-27
1 22825U 93061C 09113.82091072 .00000020 00000-0 24303-4 0 2284
2 22825 098.4321 068.9689 0009382 066.6112 293.6057 14.29263831812145
IO-26
1 22826U 93061D 09113.68069057 .00000008 00000-0 19519-4 0 9519
2 22826 098.4253 069.6058 0009852 063.5340 296.6859 14.29515141812225
GO-32
1 25397U 98043D 09112.60086630 .00000037 00000-0 34403-4 0 08764
2 25397 098.3307 137.9095 0002114 073.0682 287.0730 14.23157683560228
NO-44
1 26931U 01043C 09112.73408748 -.00000210 00000-0 -49602-4 0 01513
2 26931 067.0524 207.2046 0005200 266.0779 093.9706 14.29553164394653
SO-50
1 27607U 02058C 09112.66100650 -.00000046 00000-0 15046-4 0 08680
2 27607 064.5589 193.7302 0073450 217.7182 141.8759 14.71429409340501
CO-55
1 27844U 03031E 09113.69014065 .00000044 00000-0 40872-4 0 5637
2 27844 098.7143 123.6247 0009243 305.6193 054.4118 14.20633134301520
CO-57
1 27848U 03031J 09113.58964774 .00000011 00000-0 25474-4 0 5095
2 27848 098.7164 122.5875 0009338 309.9970 050.0379 14.20435598301476
AO-51
1 28375U 04025K 09112.95658019 .00000001 00000-0 13316-4 0 03726
2 28375 098.0548 125.7778 0083678 293.6187 065.6226 14.40639074253001
CO-56
1 28941U 06005C 09113.48570857 .00036668 30720-5 15164-3 0 170
2 28941 098.1341 277.9387 0098350 338.1183 021.5882 15.78908395178600
CP3
1 31128U 07012M 09112.61063158 -.00000046 00000-0 00000-0 0 06121
2 31128 097.9935 168.2393 0104048 097.6015 263.7025 14.52035384106834
CP4
1 31132U 07012Q 09113.68881891 .00000036 00000-0 18164-4 0 5891
2 31132 097.9985 172.9985 0086893 083.3046 277.8029 14.55199504107105
CO-65
1 32785U 08021C 09113.75440660 .00000190 00000-0 31000-4 0 3466
2 32785 097.9504 178.1595 0013988 205.5294 154.5224 14.81471568 53380
SOHLA-1
1 33496U 09002E 09113.70692883 .00000086 00000-0 22792-4 0 2783
2 33496 098.0319 223.8798 0008015 095.7972 264.4147 14.69430374 13271
NOAA-10
1 16969U 86073A 09112.63962598 -.00000038 00000-0 25445-5 0 05854
2 16969 098.6955 139.5793 0012485 003.3944 356.7304 14.27384420175584
NOAA-11
1 19531U 88089A 09112.76585694 -.00000190 00000-0 -75526-4 0 05969
2 19531 098.7811 203.5758 0010741 268.4048 091.5896 14.14892700061685
NOAA-12
1 21263U 91032A 09112.94063807 .00000018 00000-0 26579-4 0 01049
2 21263 098.7728 120.9753 0011792 310.5582 049.4572 14.25574957932529
MET-3/5
1 21655U 91056A 09113.90727351 .00000051 00000-0 10000-3 0 5882
2 21655 082.5483 244.8325 0012935 321.7195 038.3008 13.17019102850489
MET-2/21
1 22782U 93055A 09112.42508837 .00000002 00000-0 -11874-4 0 04390
2 22782 082.5480 226.2313 0023373 140.2058 220.0800 13.83636267789895
OKEAN-4
1 23317U 94066A 09112.76087280 .00000095 00000-0 88131-5 0 08889
2 23317 082.5416 026.2080 0021627 183.0010 177.1063 14.82689927784159
NOAA-14
1 23455U 94089A 09112.75571482 .00000234 00000-0 14756-3 0 05914
2 23455 098.9105 190.6239 0009050 353.2816 006.8233 14.13762972738096
NOAA-15
1 25338U 98030A 09112.57350727 .00000172 00000-0 92272-4 0 09008
2 25338 098.5820 103.0085 0009968 215.8041 144.2462 14.24755425568859
RESURS
1 25394U 98043A 09112.65803169 -.00000043 00000-0 -93712-6 0 02099
2 25394 098.3482 147.8220 0002245 036.2498 323.8833 14.24181504560492
FENGYUN1
1 25730U 99025A 09112.92273464 -.00000108 00000-0 -38359-4 0 07409
2 25730 098.7535 084.7460 0022857 018.2091 341.9890 14.07962945512548
OKEAN-0
1 25860U 99039A 09112.55856166 .00000060 00000-0 16492-4 0 6579
2 25860 097.7824 095.9632 0001530 046.0744 314.0585 14.73568896524956
NOAA-16
1 26536U 00055A 09112.97057234 .00000142 00000-0 10178-3 0 03768
2 26536 099.1768 115.3036 0011386 077.6403 282.5995 14.12516950442508
NOAA-17
1 27453U 02032A 09112.70468020 .00000105 00000-0 63902-4 0 03857
2 27453 098.4887 173.6735 0010719 286.5206 073.4817 14.24057362354855
NOAA-18
1 28654U 05018A 09113.73913895 .00000284 00000-0 18153-3 0 8745
2 28654 098.9038 057.4094 0014730 153.5996 206.5912 14.11253022202275
NOAA-19
1 33591U 09005A 09113.70746783 -.00000004 00000-0 21469-4 0 791
2 33591 098.7431 060.8966 0014935 040.9051 319.3234 14.10950253 10759
HUBBLE
1 20580U 90037B 09112.38084535 .00000299 00000-0 10246-4 0 03769
2 20580 028.4689 106.4394 0003724 072.6606 287.4389 15.00476624841463
PO-34
1 25520U 98064B 09112.74314574 .00000481 00000-0 13827-4 0 02338
2 25520 028.4597 266.1350 0005130 063.4718 296.6416 15.17326302580223
ISS
1 25544U 98067A 09112.79661553 .00014089 00000-0 10808-3 0 7232
2 25544 051.6404 230.8937 0008684 272.5117 234.2690 15.72359056597230
CO-58
1 28895U 05043F 09112.67974867 .00000026 00000-0 14892-4 0 02844
2 28895 098.0663 004.8318 0018293 158.5267 201.6702 14.59760157185633
FALCON
1 30776U 07006E 09112.97272584 .00000431 00000-0 34268-4 0 05590
2 30776 035.4328 074.3980 0000684 216.5253 143.5417 15.03220856116783
MAST
1 31126U 07012K 09112.68707682 .00000027 00000-0 16318-4 0 05774
2 31126 097.9954 170.0205 0095843 092.3492 268.8661 14.53490783106975
CAPE1
1 31130U 07012P 09112.80882192 .00000114 00000-0 36865-4 0 5825
2 31130 097.9957 168.4439 0104257 096.9934 264.3120 14.52051457106650
COMPASS
1 32787U 08021E 09113.73555708 .00000082 00000-0 17291-4 0 3394
2 32787 097.9431 178.0079 0015155 205.9613 154.0839 14.81582379 53384
AAUSAT2
1 32788U 08021F 09113.84299413 -.00000085 00000-0 -39926-5 0 3390
2 32788 097.9477 178.1667 0014612 205.8474 154.1964 14.81703789 53403
DO-64
1 32789U 08021G 09113.72875745 .00000165 00000-0 27690-4 0 3487
2 32789 097.9512 178.1811 0014983 205.5666 154.4806 14.81671805 53384
CO-66
1 32791U 08021J 09113.70465972 .00000237 00000-0 37132-4 0 3308
2 32791 097.9478 178.0091 0015199 205.0311 155.0157 14.81417989 53342
RS-30
1 32953U 08025A 09112.57137011 .00000010 00000-0 00000-0 0 02887
2 32953 082.4977 291.2031 0018295 301.8215 058.1081 12.43000401041489
/EX
More information about the Keps
mailing list